Weather History for KMBG - December, 2012

Change the Weather History Date:

Tuesday, December 25, 2012

  Actual Average Record
Temperature  
Mean Temperature 2 °F 16 °F  
Max Temperature 12 °F 26 °F 51 °F (1963)
Min Temperature -9 °F 6 °F -17 °F (1996)
Degree Days  
Heating Degree Days 63 49  
Month to date heating degree days 1105 1155  
Since 1 July heating degree days 2852 2921  
Cooling Degree Days 0 0  
Month to date cooling degree days 0 0  
Year to date cooling degree days 866 644  
Moisture  
Dew Point 2 °F    
Average Humidity 77    
Maximum Humidity 87    
Minimum Humidity 66    
Precipitation  
Precipitation 0.02 in 0.02 in 0.23 in (2009)
Month to date precipitation 0.49 0.31  
Year to date precipitation 13.66 17.74  
Snow  
Snow 0.00 in - - ()
Month to date snowfall 7.7  
Since 1 July snowfall 8.2  
Snow Depth -    
Sea Level Pressure  
Sea Level Pressure 30.45 in    
Wind  
Wind Speed 4 mph (South)    
Max Wind Speed 12 mph    
Max Gust Speed 13 mph    
Visibility 7 miles    
Events Snow    
T = Trace of Precipitation, MM = Missing Value Source: NWS Daily Summary

Daily Weather History Graph

Daily Weather History Graph

Search for Another Location

Airport or City:

Trip Planner

Search our weather history database for the weather conditions in past years. The results will help you decide how hot, cold, wet, or windy it might be!

Date:

Astronomy

Dec. 25, 2012 Rise Set
Actual Time 8:20 AM CST 5:03 PM CST
Civil Twilight 7:46 AM CST 5:37 PM CST
Nautical Twilight 7:08 AM CST 6:15 PM CST
Astronomical Twilight 6:32 AM CST 6:51 PM CST
Moon 3:14 PM CST (12/25) 5:52 AM CST (12/25)
Length of Visible Light 9h 51m
Length of Day
8h 42m
Waxing Gibbous, 94% of the Moon is Illuminated
Dec 25
Waxing Gibbous
Dec 28
Full
Jan 4
Last Quarter
Jan 11
New
Jan 18
First Quarter

Hourly Weather History & Observations

Time (CST) Temp. Windchill Dew Point Humidity Pressure Visibility Wind Dir Wind Speed Gust Speed Precip Events Conditions
12:52 AM -9.0 °F - -14.1 °F 79% 30.53 in 10.0 mi Calm Calm - N/A   Partly Cloudy
1:52 AM -2.9 °F -15.0 °F -8.0 °F 79% 30.52 in 10.0 mi NNW 5.8 mph - N/A   Overcast
2:52 AM -2.0 °F - -8.0 °F 76% 30.53 in 10.0 mi Calm Calm - N/A   Overcast
3:52 AM -0.0 °F - -5.1 °F 79% 30.53 in 10.0 mi Calm Calm - N/A   Overcast
4:52 AM 1.9 °F -9.2 °F -4.0 °F 76% 30.53 in 10.0 mi NW 5.8 mph - N/A   Overcast
5:52 AM 1.9 °F -7.6 °F -2.9 °F 80% 30.53 in 10.0 mi NNW 4.6 mph - N/A   Overcast
6:52 AM 3.9 °F -5.3 °F -2.0 °F 76% 30.54 in 10.0 mi NW 4.6 mph - N/A   Overcast
7:52 AM 5.0 °F -4.1 °F -0.0 °F 80% 30.55 in 10.0 mi NW 4.6 mph - N/A   Overcast
8:52 AM 5.0 °F -2.1 °F -0.0 °F 80% 30.57 in 10.0 mi West 3.5 mph - N/A   Overcast
9:52 AM 7.0 °F -3.3 °F 1.0 °F 77% 30.58 in 10.0 mi West 5.8 mph - N/A   Overcast
10:52 AM 8.1 °F - 1.0 °F 73% 30.59 in 10.0 mi Calm Calm - N/A   Overcast
11:52 AM 9.0 °F - 1.9 °F 73% 30.57 in 10.0 mi Calm Calm - N/A   Overcast
12:52 PM 10.9 °F - 1.9 °F 67% 30.54 in 9.0 mi Calm Calm - N/A   Overcast
1:52 PM 10.0 °F 3.6 °F 1.9 °F 70% 30.50 in 10.0 mi SSW 3.5 mph - N/A   Overcast
2:52 PM 10.9 °F 1.4 °F 1.9 °F 67% 30.49 in 10.0 mi SSW 5.8 mph - N/A   Overcast
3:52 PM 10.9 °F 4.7 °F 1.9 °F 67% 30.46 in 10.0 mi South 3.5 mph - N/A   Overcast
4:52 PM 10.9 °F 4.7 °F 1.9 °F 67% 30.46 in 10.0 mi SSW 3.5 mph - N/A   Overcast
5:52 PM 10.9 °F - 3.0 °F 70% 30.46 in 10.0 mi Calm Calm - N/A   Overcast
6:52 PM 12.0 °F 2.7 °F 3.9 °F 70% 30.47 in 4.0 mi SSE 5.8 mph - N/A   Haze
7:08 PM 12.2 °F 1.7 °F 3.2 °F 67% 30.34 in 2.0 mi SSE 6.9 mph - 0.00 in Snow Light Snow
7:23 PM 10.4 °F -1.5 °F 5.0 °F 79% 30.34 in 4.0 mi SSE 8.1 mph - 0.00 in Snow Light Snow
7:45 PM 10.4 °F -1.5 °F 6.8 °F 85% 30.34 in 2.5 mi South 8.1 mph - 0.00 in Snow Light Snow
7:47 PM 10.4 °F -2.4 °F 6.8 °F 85% 30.34 in 3.0 mi South 9.2 mph - 0.00 in Snow Light Snow
7:52 PM 10.9 °F -0.8 °F 6.1 °F 81% 30.46 in 3.0 mi South 8.1 mph - 0.00 in Snow Light Snow
8:00 PM 10.4 °F -2.4 °F 6.8 °F 85% 30.34 in 2.0 mi South 9.2 mph - 0.00 in Snow Light Snow
8:20 PM 10.4 °F -2.4 °F 6.8 °F 85% 30.33 in 2.5 mi South 9.2 mph - 0.01 in Snow Light Snow
8:34 PM 10.4 °F -2.4 °F 6.8 °F 85% 30.33 in 2.5 mi South 9.2 mph - 0.01 in Snow Light Snow
8:45 PM 10.4 °F -2.4 °F 6.8 °F 85% 30.32 in 1.8 mi South 9.2 mph - 0.01 in Snow Light Snow
8:52 PM 10.9 °F -1.8 °F 7.0 °F 84% 30.44 in 2.0 mi South 9.2 mph - 0.01 in Snow Light Snow
9:10 PM 10.4 °F -2.4 °F 6.8 °F 85% 30.31 in 4.0 mi South 9.2 mph - 0.00 in Snow Light Snow
9:52 PM 10.0 °F -0.9 °F 6.1 °F 84% 30.41 in 3.0 mi SSE 6.9 mph - 0.01 in Snow Light Snow
10:52 PM 9.0 °F -5.9 °F 6.1 °F 88% 30.36 in 8.0 mi SE 11.5 mph - 0.00 in   Overcast
11:05 PM 8.6 °F -5.5 °F 5.0 °F 85% 30.24 in 4.0 mi SE 10.4 mph - N/A   Overcast
11:52 PM 7.0 °F 0.1 °F 3.0 °F 84% 30.36 in 9.0 mi SE 3.5 mph - N/A   Mostly Cloudy